Weather History for West Palm Beach, FL

Change the Weather History Date:

Saturday, March 16, 2013

  Actual Average Record
Temperature  
Mean Temperature 64 °F 70 °F  
Max Temperature 75 °F 79 °F 90 °F (1956)
Min Temperature 52 °F 62 °F 43 °F (1988)
Degree Days  
Heating Degree Days 1 1  
Month to date heating degree days 59 16  
Since 1 July heating degree days 142 221  
Cooling Degree Days 0 6  
Month to date cooling degree days 24 94  
Year to date cooling degree days 405 329  
Growing Degree Days 14 (Base 50)    
Moisture  
Dew Point 51 °F    
Average Humidity 66    
Maximum Humidity 93    
Minimum Humidity 38    
Precipitation  
Precipitation 0.00 in 0.17 in 2.42 in (1947)
Month to date precipitation T 2.30  
Year to date precipitation 3.19 8.25  
Snow  
Snow 0.00 in - - ()
Month to date snowfall 0.0  
Since 1 July snowfall 0.0  
Snow Depth 0.00 in    
Sea Level Pressure  
Sea Level Pressure 30.15 in    
Wind  
Wind Speed 6 mph (SSE)    
Max Wind Speed 18 mph    
Max Gust Speed 23 mph    
Visibility 10 miles    
Events      
T = Trace of Precipitation, MM = Missing Value Source: NWS Daily Summary

Daily Weather History Graph

Daily Weather History Graph

Search for Another Location

Airport:

Trip Planner

Search our weather history database for the weather conditions in past years. The results will help you decide how hot, cold, wet, or windy it might be!

Date:

Astronomy

Mar. 16, 2013 Rise Set
Actual Time 7:28 AM EDT 7:29 PM EDT
Civil Twilight 7:05 AM EDT 7:52 PM EDT
Nautical Twilight 6:38 AM EDT 8:19 PM EDT
Astronomical Twilight 6:11 AM EDT 8:46 PM EDT
Moon 10:24 AM EDT (3/16) No Moon Set
Length of Visible Light 12h 47m
Length of Day
12h 01m
Waxing Crescent, 23% of the Moon is Illuminated
Mar 16
Waxing Crescent
Mar 19
First Quarter
Mar 27
Full
Apr 3
Last Quarter
Apr 10
New

Hourly Weather History & Observations

Time (EDT) Temp. Dew Point Humidity Pressure Visibility Wind Dir Wind Speed Gust Speed Precip Events Conditions
12:53 AM 57.0 °F 51.1 °F 81% 30.19 in 10.0 mi Calm Calm - N/A   Partly Cloudy
1:53 AM 55.9 °F 52.0 °F 87% 30.18 in 10.0 mi Calm Calm - N/A   Partly Cloudy
2:53 AM 54.0 °F 51.1 °F 90% 30.16 in 10.0 mi Calm Calm - N/A   Partly Cloudy
3:53 AM 54.0 °F 51.1 °F 90% 30.15 in 10.0 mi WNW 3.5 mph - N/A   Partly Cloudy
4:53 AM 55.0 °F 51.1 °F 86% 30.15 in 10.0 mi West 3.5 mph - N/A   Partly Cloudy
5:53 AM 53.1 °F 50.0 °F 89% 30.15 in 10.0 mi Calm Calm - N/A   Partly Cloudy
6:53 AM 54.0 °F 51.1 °F 90% 30.17 in 10.0 mi Calm Calm - N/A   Mostly Cloudy
7:53 AM 52.0 °F 48.9 °F 89% 30.18 in 10.0 mi Calm Calm - N/A   Scattered Clouds
8:53 AM 60.1 °F 54.0 °F 80% 30.20 in 10.0 mi Calm Calm - N/A   Scattered Clouds
9:53 AM 68.0 °F 50.0 °F 52% 30.19 in 10.0 mi Variable 3.5 mph - N/A   Scattered Clouds
10:53 AM 69.1 °F 48.0 °F 47% 30.20 in 10.0 mi South 5.8 mph - N/A   Scattered Clouds
11:53 AM 72.0 °F 48.0 °F 43% 30.18 in 10.0 mi SE 9.2 mph - N/A   Scattered Clouds
12:53 PM 73.0 °F 46.0 °F 38% 30.17 in 10.0 mi Variable 6.9 mph - N/A   Scattered Clouds
1:53 PM 73.9 °F 48.9 °F 41% 30.15 in 10.0 mi ESE 9.2 mph 18.4 mph N/A   Scattered Clouds
2:53 PM 73.9 °F 48.9 °F 41% 30.12 in 10.0 mi SE 12.7 mph 21.9 mph N/A   Scattered Clouds
3:53 PM 73.0 °F 50.0 °F 44% 30.10 in 10.0 mi SE 17.3 mph 23.0 mph N/A   Scattered Clouds
4:53 PM 73.0 °F 50.0 °F 44% 30.09 in 10.0 mi ESE 16.1 mph - N/A   Scattered Clouds
5:53 PM 72.0 °F 51.1 °F 48% 30.09 in 10.0 mi SE 16.1 mph - N/A   Scattered Clouds
6:53 PM 70.0 °F 50.0 °F 49% 30.10 in 10.0 mi SE 12.7 mph - N/A   Partly Cloudy
7:53 PM 69.1 °F 52.0 °F 54% 30.10 in 10.0 mi SSE 10.4 mph - N/A   Partly Cloudy
8:53 PM 66.9 °F 52.0 °F 59% 30.12 in 10.0 mi South 6.9 mph - N/A   Partly Cloudy
9:53 PM 66.9 °F 53.1 °F 61% 30.13 in 10.0 mi SSE 6.9 mph - N/A   Partly Cloudy
10:53 PM 64.9 °F 53.1 °F 65% 30.14 in 10.0 mi SSW 3.5 mph - N/A   Partly Cloudy
11:53 PM 63.0 °F 53.1 °F 70% 30.14 in 10.0 mi SW 3.5 mph - N/A   Partly Cloudy